Regional Weather Roundup
Issued by NWS

Home | Current Version | Previous Version | Graphics & Text | Print | Product List | Glossary On
Versions: 1 2 3 4 5 6 7 8 9 10 11 12 13 14 15 16 17 18 19 20 21 22 23 24 25 26 27 28 29 30 31 32 33 34 35 36 37 38 39 40 41 42 43 44 45 46 47 48 49 50
619
ASUS43 KLSX 091857
RWRMO

WEATHER SUMMARY FOR MISSOURI
NATIONAL WEATHER SERVICE SPRINGFIELD MO
100 PM CST TUE FEB 09 2016

NOTE: "FAIR" INDICATES FEW OR NO CLOUDS BELOW 12,000 FEET WITH NO
       SIGNIFICANT WEATHER AND/OR OBSTRUCTIONS TO VISIBILITY.
       CURRENT SKY AND/OR WEATHER CONDITIONS ARE NOT AVAILABLE FOR
       CHILLICOTHE AND FARMINGTON.

MOZ001>031-035>038-043-044-053-054-092000-
...NORTHERN AND WESTERN MISSOURI...

CITY           SKY/WX    TMP DP  RH WIND       PRES   REMARKS
KANSAS CTY INT MOSUNNY   27   9  46 NW22G32   30.19S WCI  13
LEE`S SUMMIT   MOSUNNY   27   9  46 NW21G30   30.19S WCI  13
ST JOSEPH      SUNNY     25   7  46 NW26      30.23S WCI   9
CHILLICOTHE      N/A     24  10  55 NW14G26   30.17F WCI  12

$$
MOZ066>068-077>081-088>096-101>105-092000-
...SOUTHWEST MISSOURI...

CITY           SKY/WX    TMP DP  RH WIND       PRES   REMARKS
SPRINGFIELD    MOSUNNY   30   9  41 NW21G35   30.11S WCI  17
JOPLIN         SUNNY     35   8  32 NW17G28   30.19F WCI  25

$$
MOZ032>034-039>042-045>050-055>058-069>072-092000-
...CENTRAL MISSOURI...

CITY           SKY/WX    TMP DP  RH WIND       PRES   REMARKS
COLUMBIA       NOT AVBL
JEFFERSON CITY CLOUDY    24  10  55 NW22G31   30.11F WCI   9
ROLLA          CLOUDY    22  12  65 W16G24    30.04S WCI   8
SEDALIA        SUNNY     26  10  50 NW21G28   30.15S WCI  12

$$
MOZ051-052-059>065-092000-
...EAST CENTRAL MISSOURI...

CITY           SKY/WX    TMP DP  RH WIND       PRES   REMARKS
ST LOUIS INTL  FLURRIES  22  11  62 W18G25    30.02F WCI   7
ST CHARLES     CLOUDY    21  10  63 NW15      30.03S WCI   8

$$
MOZ072>076-082>087-097>100-106>115-092000-
...SOUTH CENTRAL AND SOUTHEAST MISSOURI...

CITY           SKY/WX    TMP DP  RH WIND       PRES   REMARKS
CAPE GIRARDEAU CLOUDY    24  13  62 NW18      30.02S WCI  10
FARMINGTON     FLURRIES  21  12  68 NW18G24   30.00S WCI   6
POPLAR BLUFF   CLOUDY    29  11  47 W17G23    30.03S WCI  17
WEST PLAINS    CLOUDY    28  10  46 NW18G28   30.05S WCI  15

$$



USA.gov is the U.S. government's official web portal to all federal, state and local government web resources and services.